This is the latest recevied weather packets stored in our database for station/object KM4KBD. If no packets are shown the sender has not sent any weather packets the latest 10 day(s).
| Time | Temp. | Humidity | Pressure | Rain* | Wind** | Luminosity | Snow |
|---|---|---|---|---|---|---|---|
| 1777317415 | 27.78° C | 40% | 1020.1 hPa | 0 mm | - | 419 W/m² | - |
| 1777317110 | 27.78° C | 39% | 1020 hPa | 0 mm | - | 378 W/m² | - |
| 1777316808 | 27.22° C | 41% | 1019.8 hPa | 0 mm | - | 352 W/m² | - |
| 1777316504 | 27.78° C | 40% | 1020 hPa | 0 mm | - | 308 W/m² | - |
| 1777316201 | 27.78° C | 41% | 1020.2 hPa | 0 mm | - | 375 W/m² | - |
| 1777315899 | 27.22° C | 43% | 1020.4 hPa | 0 mm | - | 475 W/m² | - |
| 1777315597 | 27.22° C | 43% | 1020.5 hPa | 0 mm | - | 484 W/m² | - |
| 1777315295 | 27.22° C | 42% | 1020.3 hPa | 0 mm | - | 426 W/m² | - |
| 1777314992 | 27.78° C | 43% | 1020.3 hPa | 0 mm | - | 542 W/m² | - |
| 1777314687 | 27.78° C | 42% | 1020.6 hPa | 0 mm | - | 597 W/m² | - |
| 1777314384 | 28.33° C | 43% | 1020.7 hPa | 0 mm | - | 680 W/m² | - |
| 1777314081 | 27.78° C | 45% | 1021 hPa | 0 mm | - | 706 W/m² | - |
| 1777313780 | 27.22° C | 43% | 1020.9 hPa | 0 mm | - | 661 W/m² | - |
| 1777313477 | 27.22° C | 43% | 1021.4 hPa | 0 mm | - | 686 W/m² | - |
| 1777313174 | 27.22° C | 43% | 1021.2 hPa | 0 mm | - | 642 W/m² | - |
| 1777312870 | 27.22° C | 44% | 1021.7 hPa | 0 mm | - | 623 W/m² | - |
| 1777312566 | 27.22° C | 45% | 1021.8 hPa | 0 mm | - | 568 W/m² | - |
| 1777312263 | 26.67° C | 45% | 1021.9 hPa | 0 mm | - | 640 W/m² | - |
| 1777311961 | 26.67° C | 47% | 1021.7 hPa | 0 mm | - | 648 W/m² | - |
| 1777311657 | 26.67° C | 46% | 1021.5 hPa | 0 mm | - | 636 W/m² | - |
| 1777311355 | 26.67° C | 47% | 1021.7 hPa | 0 mm | - | 595 W/m² | - |
| 1777311052 | 26.11° C | 47% | 1021.7 hPa | 0 mm | - | 583 W/m² | - |
| 1777310750 | 26.11° C | 46% | 1021.9 hPa | 0 mm | - | 512 W/m² | - |
| 1777310447 | 26.11° C | 46% | 1022 hPa | 0 mm | - | 612 W/m² | - |
| 1777310144 | 26.11° C | 48% | 1021.8 hPa | 0 mm | - | 445 W/m² | - |
* Rain latest hour (hover to see other rain measurements)
** Current wind speed in m/s (hover to see current wind gust speed)